Regional Weather Roundup
Issued by NWS Huntsville, AL

Current Version | Previous Version | Text Only | Print | Product List | Glossary On
Versions: 1 2 3 4 5 6 7 8 9 10 11 12 13 14 15 16 17 18 19 20 21 22 23 24 25 26 27 28 29 30 31 32 33 34 35 36 37 38 39 40 41 42 43 44 45 46 47 48 49 50
000
ASUS44 KHUN 181210
RWRHUN

WEATHER ROUNDUP FOR THE TENNESSEE VALLEY
NATIONAL WEATHER SERVICE HUNTSVILLE AL
600 AM CST THU DEC 18 2014

ALZ001>004-181300-
NORTHWEST ALABAMA

CITY           SKY/WX    TMP DP  RH WIND       PRES   REMARKS
SHOALS AIRPORT LGT RAIN  39  32  76 CALM      30.24F
6HR MIN TEMP:  39; 6HR MAX TEMP:  40; 6HR PCP:  0.02;

SHOALS TVA RES   N/A     37 N/A N/A MISG        N/A
$$

ALZ005>007-016-181300-
NORTH CENTRAL ALABAMA

CITY           SKY/WX    TMP DP  RH WIND       PRES   REMARKS
DECATUR AP     CLOUDY    38  31  76 CALM      30.24F
6HR MIN TEMP:  36; 6HR MAX TEMP:  38; 6HR PCP: TRACE;

HUNTSVILLE AP  CLOUDY    40  30  67 CALM      30.23F
6HR MIN TEMP:  38; 6HR MAX TEMP:  40; 6HR PCP: TRACE;

HUN NWS/UAH      N/A     37  29  72 N2          N/A
MERIDIANVILLE  LGT RAIN  36  28  75 CALM      30.22S
REDSTONE ARSN  CLOUDY    37  30  75 NE3       30.22F
VINEMONT AP    PTSUNNY   35  31  85 N3        30.23S
$$

ALZ008>010-181300-
NORTHEAST ALABAMA

CITY           SKY/WX    TMP DP  RH WIND       PRES   REMARKS
ALBERTVILLE    CLOUDY    36  34  93 NE3       30.19F
FORT PAYNE     CLOUDY    34  30  86 CALM      30.20S
SCOTTSBORO AP  CLOUDY    36  32  87 CALM      30.23S
VALLEY HEAD      N/A     34 N/A N/A MISG        N/A
$$

TNZ076-096-097-181300-
SOUTHEASTERN MIDDLE TENNESSEE

CITY           SKY/WX    TMP DP  RH WIND       PRES   REMARKS
TULLAHOMA        N/A     32  30  93 E8        30.19F WCI  25
WINCHESTER     CLOUDY    34  30  86 NE5       30.21F WCI  30
$$

...SURROUNDING SITES...

CITY           SKY/WX    TMP DP  RH WIND       PRES   REMARKS
ATLANTA        MOCLDY    36  30  79 NW9       30.15R WCI  29
ANNISTON       PTCLDY    31  29  92 CALM      30.21S
BIRMINGHAM     MOCLDY    34  31  88 NE3       30.24R
CHATTANOOGA    CLOUDY    38  30  73 NE7       30.23R WCI  33
CORINTH        CLOUDY    39  36  87 CALM      30.21R
DALTON         CLOUDY    36  32  87 N13G18    30.20R WCI  27
GADSDEN        MOCLDY    36  28  75 N7        30.22S WCI  30
GOLDEN TRNGL   CLOUDY    41  36  81 E3        30.22S
HALEYVILLE     LGT RAIN  36  31  82 CALM      30.23F
JACKSON TN     CLOUDY    36  34  92 CALM      30.23F
LEWISBURG      CLOUDY    32  30  92 CALM      30.23S
MEMPHIS        CLOUDY    38  35  89 E5        30.22R WCI  34
MURFREESBORO   CLOUDY    32  31  96 CALM      30.24F
NASHVILLE      LGT RAIN  33  31  92 CALM      30.26S
OXFORD MS      MOCLDY    36  34  93 E6        30.21S WCI  31
ROME           MOCLDY    37  30  75 N7        30.21R WCI  32
SAVANNAH       CLOUDY    36  36 100 CALM      30.22S
TUPELO         CLOUDY    41  34  76 E3        30.21F
TUSCALOOSA     MOCLDY    37  34  89 NE3       30.24S
$$

...GULF COAST WEATHER...

CITY           SKY/WX    TMP DP  RH WIND       PRES   REMARKS
GULFPORT       PTCLDY    45  40  82 E3        30.18R
PASCAGOULA     CLEAR     40  38  93 NE5       30.19S
MOBILE         PTCLDY    41  38  89 NE6       30.19S
GULF SHORES    MOSUNNY   42  39  89 NE3       30.19S
PENSACOLA      MOCLDY    42  40  92 N5        30.19R
DESTIN         MOCLDY    46  42  86 N5        30.19R
PANAMA CITY    MOCLDY    46  42  85 NE3       30.18R
APPALACHICOLA  CLEAR     43  39  86 NE5       30.17R
$$




USA.gov is the U.S. government's official web portal to all federal, state and local government web resources and services.